STARLINK-1726, 46362

Orbit data source: Space-Track

STARLINK-1726, 46362 is a payload satellite owned by SpaceX/Seattle (US) in LEO that was launched on Thu, 03 Sep 2020 UTC via an FALCON 9 launch vehicle from the Air Force Eastern Test Range (AFETR). Payloads include a variety of satellites, spacecraft, and rockets equipped with specific instruments for various scientific and technological missions. These include communications satellites like Starlink; space stations such as the ISS; scientific satellites like the Hubble; Earth observation satellites from companies like Planet Labs, Umbra, and HawkEye 360; GPS; miniature CubeSats for education and research; and military/defense satellites.

Loading next visibility...
STARLINK-1726 details
Identifier
46362, 2020-062AP
Orbit
LEO
Last TLE update18 hours ago
Origin
Flag of USSpaceX/Seattle (US)
ManufacturerSpaceX/Seattle
MissionOperational Commercial Communications
Bus & MotorSTARLINK, Unknown motor
Mass260 kg wet, ~248 kg dry
Launch date (UTC)
2020-09-03 (4 years ago)
Launch vehicle
FALCON 9
Launch site
Air Force Eastern Test Range (AFETR)
Object type
Payload
Rocket body
Debris
Shape & HBRBox + 1 Pan, 8.86 m
Radar Cross Section13.562 m², Large (>1 m²)

Expand to show TLE details & history

TLE from 18 hours ago
0 STARLINK-1726
1 46362U 20062AP  24360.69437076  .00002115  00000-0  16074-3 0  9998
2 46362  53.0546 142.3427 0001299  96.1948 263.9189 15.06423874238952
Epoch: 2024-12-25T16:39Z
Definitive object data (Epoch: 2024-12-25T16:39:53.633Z)
Latitude-0.00003°
Longitude157.68476°
Altitude548.113 km
Speed7.589 km/s
True Right ascension09h 29m 22s
True Declination0° 00' 00"
Sunlit
Object was in full shadow at TLE epoch
Visualization TLE readout
Latitude41.8725°
Longitude-67.79575°
Altitude550.299 km
Speed7.592 km/s
Apparent Right ascension20h 13m 00s
Apparent Declination3° 23' 49"
Sunlit
Object is in daylight
Visualization observer readout
Local Sidereal Time10:04:48
Azimuth37.433° NE
Elevation-39.665°
Doppler factor1
Orbital elements
Apogee altitude548.309 km
Perigee altitude546.509 km
Semi-major axis6,925.546 km
Eccentricity0.0001299
Inclination53.0546°
RAAN142.3427°
Arg. of periapsis96.1948°
True anomaly263.9041°
Mean anomaly263.9189°
Eccentric anomaly263.9115°
Mean motion3.76584 °/min
BSTAR0.00016074
Orbital period95.6 mins
Loading maneuver chart data...
Loading historical data...
Loading historical data...
Loading historical data...
Loading historical data...
Loading historical data...
Loading historical data...
Loading historical data...

STARLINK-1726 Visibility forecast

Observer location: undefined°, undefined

Span
Click to sort rows by Start time (UTC) header in descending order
Start Az.
Max El. time (UTC)
Max El. Az.
Max El.
End time (UTC)
End Az.
7 mins2024-12-26 11:55:34.464Z209.481° SW2024-12-26 11:59:34.464Z123.423° SE37.138°2024-12-26 12:02:34.464Z62.796° ENE
6 mins2024-12-26 13:36:34.464Z281.37° WNW2024-12-26 13:38:34.464Z319.512° NNW25.234°2024-12-26 13:42:34.464Z33.517° NE
6 mins2024-12-26 18:38:34.464Z327.755° NNW2024-12-26 18:40:34.464Z20.469° NNE37.724°2024-12-26 18:44:34.464Z111.464° ESE
4 mins2024-12-26 20:18:34.464Z261.887° W2024-12-26 20:20:34.464Z220.266° SW20.309°2024-12-26 20:22:34.464Z186.747° SSW
|